map of DWC home
DWC - Airport
Location
City:  Dubai, Dubai, United Arab Emirates
Near (Alt.):Jebel Ali
Name:Al Maktoum International Airport
Old (Alt.):Dubai World Central International Airport
ICAO:OMDW
IATA:DWC

Details
Type:Airport (Aerodrome, Airfield)
Use:International (customs port of entry)
Latitude:2453'10"N (24.886111)
Longitude:5510'20"E (55.172222)
Variation:2.07E (WMM2015v2 magnetic declination)
0.05 annual change
Runways:1
Longest:14764 ft (4500 m)

Time
Time Zone:UTC+4
Local Time:

Weather
METAR:OMDW 041400Z 29012KT CAVOK 20/12 Q1019 NOSIG
TAF:OMDW 031655Z 0318/0500 22008KT 8000 FEW030 PROB30
TEMPO 0320/0406 VRB15G25KT 3000 SHRA BLDU SCT025TCU
BECMG 0403/0405 28015KT PROB30
TEMPO 0408/0413 4000 BLDU
BECMG 0416/0418 22008KT

Related Locations
Nearby:
Farthest:GMR: 11799 mi / 18989 km
Mangareva [Totegegie], Gambier Islands, PF

Find:

   beyond  
but within

Other Information
Maps:
NOTAMs:
Links:
Sources:

  
  • flag of United Arab Emirates
  • flag of Dubai
  

Sectional Chart

Flight Planning
at skyvector.com

Satellite Image

Google Maps Satellite view

 

Copyright © 2004-2019 Karl L. Swartz. All rights reserved.
The Great Circle Mapper name and logo are trademarks of the Great Circle Mapper.
All other trademarks mentioned herein belong to their respective owners.
Please see credits for attibutions and further copyright information.

  Follow gcmap on Facebook Follow gcmap on Twitter GCmap on LinkedIn

hCard Microformat

Geo Microformat